Weather History for KTVL - March, 2013

Change the Weather History Date:

Tuesday, March 26, 2013

  Actual Average Record
Temperature  
Mean Temperature 44 °F 37 °F  
Max Temperature 51 °F 50 °F 68 °F (2015)
Min Temperature 36 °F 24 °F 1 °F (1995)
Degree Days  
Heating Degree Days 21 28  
Month to date heating degree days 657 777  
Since 1 July heating degree days 5675 6014  
Cooling Degree Days 0 0  
Month to date cooling degree days 0 0  
Year to date cooling degree days 0 0  
Moisture  
Dew Point 27 °F    
Average Humidity 55    
Maximum Humidity 76    
Minimum Humidity 34    
Precipitation  
Precipitation T in - 2.57 in (1940)
Month to date precipitation 0.89  
Year to date precipitation 1.79  
Sea Level Pressure  
Sea Level Pressure 29.90 in    
Wind  
Wind Speed 10 mph (South)    
Max Wind Speed 23 mph    
Max Gust Speed 32 mph    
Visibility 10 miles    
Events Rain    
T = Trace of Precipitation, MM = Missing Value Source: NWS Daily Summary

Daily Weather History Graph

Daily Weather History Graph

Search for Another Location

Airport or City:

Trip Planner

Search our weather history database for the weather conditions in past years. The results will help you decide how hot, cold, wet, or windy it might be!

Date:

Astronomy

Mar. 26, 2013 Rise Set
Actual Time 6:53 AM PDT 7:18 PM PDT
Civil Twilight 6:26 AM PDT 7:44 PM PDT
Nautical Twilight 5:55 AM PDT 8:16 PM PDT
Astronomical Twilight 5:23 AM PDT 8:48 PM PDT
Moon 7:00 PM PDT (3/26) 6:12 AM PDT (3/26)
Length of Visible Light 13h 18m
Length of Day
12h 24m
Full, 100% of the Moon is Illuminated
Mar 26
Full
Mar 27
Full
Apr 2
Last Quarter
Apr 10
New
Apr 18
First Quarter

Hourly Weather History & Observations

Time (PDT) Temp. Windchill Dew Point Humidity Pressure Visibility Wind Dir Wind Speed Gust Speed Precip Events Conditions
12:53 AM 42.1 °F 35.2 °F 27.0 °F 55% 29.85 in 10.0 mi South 12.7 mph 25.3 mph 0.00 in   Overcast
1:53 AM 44.1 °F 35.2 °F 24.1 °F 45% 29.83 in 10.0 mi South 23.0 mph 32.2 mph N/A   Overcast
2:46 AM 39.2 °F 31.6 °F 26.6 °F 61% 29.95 in 10.0 mi SSE 12.7 mph 26.5 mph 0.00 in   Mostly Cloudy
2:53 AM 39.0 °F 33.4 °F 25.0 °F 57% 29.85 in 10.0 mi SE 8.1 mph 21.9 mph 0.00 in   Mostly Cloudy
3:53 AM 42.1 °F 38.4 °F 19.0 °F 40% 29.84 in 10.0 mi Variable 5.8 mph - N/A   Overcast
4:53 AM 42.1 °F 39.2 °F 17.1 °F 37% 29.85 in 10.0 mi Variable 4.6 mph - N/A   Overcast
5:53 AM 41.0 °F 36.4 °F 16.0 °F 36% 29.86 in 10.0 mi SSW 6.9 mph - N/A   Scattered Clouds
6:53 AM 39.9 °F 36.7 °F 16.0 °F 38% 29.88 in 10.0 mi Variable 4.6 mph 19.6 mph N/A   Scattered Clouds
7:53 AM 41.0 °F 38.0 °F 17.1 °F 38% 29.89 in 10.0 mi South 4.6 mph - N/A   Partly Cloudy
8:53 AM 44.1 °F 40.8 °F 19.0 °F 37% 29.90 in 10.0 mi South 5.8 mph - N/A   Overcast
9:53 AM 45.0 °F 39.3 °F 25.0 °F 46% 29.89 in 3.0 mi South 11.5 mph - N/A   Haze
10:00 AM 46.4 °F 40.7 °F 24.8 °F 43% 29.98 in 2.5 mi South 12.7 mph - N/A   Haze
10:09 AM 46.4 °F 41.9 °F 26.6 °F 46% 29.98 in 10.0 mi SSW 9.2 mph 21.9 mph N/A   Overcast
10:53 AM 46.9 °F - 28.0 °F 48% 29.91 in 10.0 mi South 13.8 mph 21.9 mph N/A   Scattered Clouds
11:53 AM 46.9 °F - 33.1 °F 59% 29.91 in 10.0 mi SSW 12.7 mph 23.0 mph 0.00 in Rain Light Rain
12:53 PM 48.9 °F - 32.0 °F 52% 29.89 in 10.0 mi SSW 9.2 mph 25.3 mph 0.00 in Rain Light Rain
1:53 PM 48.9 °F - 28.9 °F 46% 29.90 in 10.0 mi SSW 16.1 mph 24.2 mph 0.00 in   Mostly Cloudy
2:53 PM 50.0 °F - 30.0 °F 46% 29.91 in 10.0 mi SSW 11.5 mph 23.0 mph N/A   Scattered Clouds
3:53 PM 48.9 °F - 28.9 °F 46% 29.89 in 10.0 mi SSW 8.1 mph - 0.00 in   Mostly Cloudy
4:53 PM 46.0 °F 41.9 °F 34.0 °F 63% 29.90 in 10.0 mi SSE 8.1 mph 19.6 mph 0.00 in   Scattered Clouds
5:53 PM 46.0 °F 41.0 °F 30.9 °F 56% 29.90 in 10.0 mi SSW 10.4 mph - N/A   Mostly Cloudy
6:53 PM 46.0 °F 42.5 °F 30.9 °F 56% 29.91 in 10.0 mi South 6.9 mph - N/A   Overcast
7:53 PM 44.1 °F 42.5 °F 32.0 °F 63% 29.92 in 10.0 mi SSW 3.5 mph - N/A   Overcast
8:53 PM 43.0 °F - 30.9 °F 62% 29.92 in 10.0 mi Calm Calm - N/A   Overcast
9:53 PM 41.0 °F - 34.0 °F 76% 29.94 in 10.0 mi Calm Calm - 0.00 in   Overcast
10:53 PM 41.0 °F - 33.1 °F 73% 29.93 in 10.0 mi Calm Calm - N/A   Mostly Cloudy
11:53 PM 39.9 °F - 32.0 °F 73% 29.92 in 10.0 mi Calm Calm - N/A   Mostly Cloudy